Home > Weather > Cape Town > Past weeks

Flag for South Africa Weather for the Past 2 Weeks in Cape Town, South Africa

Now
64 °F

Low clouds.


Feels Like: 64 °F
Forecast: 64 / 72 °F
Wind: 6 mph from Northwest

Location: Cape Town International Airport

Current Time: Feb 11, 2016 at 3:21:17 AM

Latest Report: Feb 11, 2016 at 2:00 AM


Visibility: 4 mi

Pressure: 29.86 "Hg

Humidity: 88%

Dew point: 61 °F

Location of Cape TownLocation

Historic Weather in Cape Town — Graph

°F

Cape Town Temperature Yesterday

Maximum temperature yesterday: 86 °F (at 1:00 PM)
Minimum temperature yesterday: 61 °F (at 5:00 AM)
Average temperature yesterday: 72 °F

High & Low Weather Summary for the Past Weeks

 TemperatureHumidityPressure
High91 °F (Jan 31, 2:00 PM)94% (Feb 11, 12:00 AM)30.09 "Hg (Feb 11, 12:00 AM)
Low61 °F (Feb 10, 5:00 AM)23% (Feb 9, 12:00 AM)29.74 "Hg (Feb 1, 3:00 AM)
Average73 °F66%29.92 "Hg
* Reported Jan 27 2:00 AM — Feb 11 2:00 AM, Cape Town, Weather by CustomWeather, © 2016

Note: Actual official high and low records may vary slightly from our data, if they occured in-between our weather recording intervals... More about our weather records

Advertising

Cape Town Weather History for the Previous 24 Hours

 ConditionsComfort  
Time TempWeatherWind HumidityBarometerVisibility
2:00 AM
Thu, Feb 11
64 °FLow clouds.6 mph88%29.86 "Hg4 mi
1:00 AM64 °FLow clouds.7 mph88%29.86 "Hg4 mi
12:00 AM63 °FPassing clouds.6 mph94%29.86 "Hg4 mi
11:00 PM
Wed, Feb 10
63 °FClear.6 mph88%29.83 "Hg10 mi
10:00 PM64 °FPassing clouds.5 mph83%29.83 "HgN/A
9:00 PM64 °FClear.3 mph83%29.83 "Hg10 mi
8:00 PM66 °FClear.7 mph83%29.80 "Hg10 mi
7:00 PM73 °FClear.7 mph65%29.80 "Hg10 mi
6:00 PM79 °FPassing clouds.9 mph58%29.77 "HgN/A
5:00 PM79 °FSunny.18 mph58%29.77 "Hg10 mi
4:00 PM79 °FSunny.21 mph54%29.77 "Hg10 mi
3:00 PM84 °FSunny.18 mph45%29.80 "Hg10 mi
2:00 PM84 °FSunny.18 mph45%29.80 "Hg10 mi
1:00 PM86 °FSunny.18 mph46%29.80 "Hg10 mi
12:00 PM82 °FSunny.15 mph48%29.83 "Hg10 mi
11:00 AM82 °FSunny.14 mph48%29.83 "Hg10 mi
10:00 AM77 °FSunny.16 mph54%29.83 "Hg10 mi
9:00 AM73 °FSunny.20 mph61%29.83 "Hg10 mi
8:00 AM72 °FSunny.9 mph65%29.80 "Hg10 mi
7:00 AM66 °FSunny.7 mph73%29.77 "Hg10 mi
6:00 AM63 °FSunny.No wind83%29.77 "Hg10 mi
5:00 AM61 °FClear.2 mph83%29.74 "Hg10 mi
4:00 AM64 °FClear.3 mph73%29.77 "Hg10 mi
3:00 AM63 °FClear.3 mph83%29.77 "Hg10 mi
Weather by CustomWeather, © 2016

See weather overviewHow to use our weather pages